Weather History for KBCK - January, 2014

Change the Weather History Date:

Thursday, January 9, 2014

  Actual Average (KLSE) Record (KLSE)
Temperature  
Mean Temperature -5 °F 17 °F  
Max Temperature 19 °F 25 °F 53 °F (2002)
Min Temperature -29 °F 9 °F -31 °F (1875)
Degree Days  
Heating Degree Days 70 48  
Month to date heating degree days 428  
Since 1 July heating degree days 3272  
Cooling Degree Days 0 0  
Month to date cooling degree days 0  
Year to date cooling degree days 0  
Moisture  
Dew Point -11 °F    
Average Humidity 64    
Maximum Humidity 87    
Minimum Humidity 41    
Precipitation  
Precipitation 0.00 in 0.03 in 0.74 in (1929)
Month to date precipitation 0.30  
Year to date precipitation 0.30  
Snow  
Snow 0.00 in 0.30 in 8.10 in (1929)
Month to date snowfall 2.6  
Since 1 July snowfall 18.2  
Snow Depth -    
Sea Level Pressure  
Sea Level Pressure 30.27 in    
Wind  
Wind Speed 2 mph (SSE)    
Max Wind Speed 10 mph    
Max Gust Speed -    
Visibility 10 miles    
Events      
T = Trace of Precipitation, MM = Missing Value Source: NWS Daily Summary

Daily Weather History Graph

Daily Weather History Graph

Search for Another Location

Airport or City:

Trip Planner

Search our weather history database for the weather conditions in past years. The results will help you decide how hot, cold, wet, or windy it might be!

Date:

Astronomy

Jan. 09, 2014 Rise Set
Actual Time 7:38 AM CST 4:43 PM CST
Civil Twilight 7:05 AM CST 5:16 PM CST
Nautical Twilight 6:29 AM CST 5:52 PM CST
Astronomical Twilight 5:54 AM CST 6:27 PM CST
Moon 12:15 PM CST (1/9) 1:40 AM CST (1/9)
Length of Visible Light 10h 10m
Length of Day
9h 05m
Waxing Gibbous, 66% of the Moon is Illuminated
Jan 9
Waxing Gibbous
Jan 15
Full
Jan 23
Last Quarter
Jan 30
New
Feb 6
First Quarter

Hourly Weather History & Observations

Time (CST) Temp. Windchill Dew Point Humidity Pressure Visibility Wind Dir Wind Speed Gust Speed Precip Events Conditions
12:15 AM -25.6 °F - -32.6 °F 69% 30.46 in 10.0 mi Calm Calm - N/A   Clear
12:35 AM -26.7 °F - -34.6 °F 66% 30.46 in 10.0 mi Calm Calm - N/A   Clear
12:55 AM -26.9 °F - -34.4 °F 67% 30.46 in 10.0 mi Calm Calm - N/A   Clear
1:15 AM -26.3 °F - -33.3 °F 69% 30.46 in 10.0 mi Calm Calm - N/A   Clear
1:35 AM -27.4 °F - -35.0 °F 67% 30.46 in 10.0 mi Calm Calm - N/A   Clear
1:55 AM -27.9 °F - -35.7 °F 67% 30.46 in 10.0 mi Calm Calm - N/A   Clear
2:15 AM -27.9 °F - -35.7 °F 67% 30.46 in 10.0 mi Calm Calm - N/A   Clear
2:35 AM -28.1 °F - -36.2 °F 65% 30.46 in 10.0 mi Calm Calm - N/A   Clear
2:55 AM -27.6 °F - -35.1 °F 67% 30.46 in 10.0 mi Calm Calm - N/A   Clear
3:15 AM -28.5 °F - -36.6 °F 65% 30.45 in 10.0 mi Calm Calm - N/A   Clear
3:35 AM -28.3 °F - -36.2 °F 66% 30.44 in 10.0 mi Calm Calm - N/A   Clear
3:55 AM -28.8 °F - -36.8 °F 66% 30.44 in 10.0 mi Calm Calm - N/A   Clear
4:15 AM -28.3 °F - -36.4 °F 65% 30.43 in 10.0 mi Calm Calm - N/A   Clear
4:35 AM -29.0 °F - -37.1 °F 65% 30.43 in 10.0 mi Calm Calm - N/A   Clear
4:55 AM -28.7 °F - -36.6 °F 66% 30.43 in 10.0 mi Calm Calm - N/A   Clear
5:15 AM -28.5 °F - -36.6 °F 65% 30.44 in 10.0 mi Calm Calm - N/A   Clear
5:35 AM -28.5 °F - -36.4 °F 66% 30.43 in 10.0 mi Calm Calm - N/A   Clear
5:55 AM -27.6 °F -42.1 °F -35.1 °F 67% 30.41 in 10.0 mi East 4.6 mph - N/A   Clear
6:15 AM -25.8 °F - -33.9 °F 66% 30.40 in 10.0 mi Calm Calm - N/A   Clear
6:35 AM -24.9 °F - -32.1 °F 69% 30.39 in 10.0 mi Calm Calm - N/A   Clear
6:55 AM -24.7 °F - -31.9 °F 69% 30.38 in 10.0 mi Calm Calm - N/A   Clear
7:15 AM -24.2 °F - -31.7 °F 68% 30.38 in 10.0 mi Calm Calm - N/A   Clear
7:35 AM -24.0 °F - -31.2 °F 69% 30.38 in 10.0 mi Calm Calm - N/A   Clear
7:55 AM -22.9 °F - -29.7 °F 70% 30.38 in 10.0 mi Calm Calm - N/A   Clear
8:15 AM -20.2 °F - -27.4 °F 69% 30.38 in 10.0 mi Calm Calm - N/A   Clear
8:35 AM -19.3 °F - -26.5 °F 70% 30.38 in 10.0 mi Calm Calm - N/A   Clear
8:55 AM -17.0 °F - -24.5 °F 69% 30.38 in 10.0 mi Calm Calm - N/A   Clear
9:15 AM -14.6 °F - -21.8 °F 70% 30.36 in 10.0 mi Calm Calm - N/A   Clear
9:35 AM -12.3 °F - -19.3 °F 71% 30.36 in 10.0 mi Calm Calm - N/A   Clear
9:55 AM -8.0 °F - -15.3 °F 70% 30.35 in 10.0 mi Calm Calm - N/A   Mostly Cloudy
10:15 AM -4.5 °F - -13.2 °F 66% 30.34 in 10.0 mi Calm Calm - N/A   Overcast
10:35 AM -0.4 °F - -9.8 °F 65% 30.33 in 10.0 mi Calm Calm - N/A   Mostly Cloudy
10:55 AM 3.6 °F - -8.1 °F 58% 30.32 in 10.0 mi Calm Calm - N/A   Mostly Cloudy
11:15 AM 5.9 °F -3.0 °F -6.9 °F 56% 30.30 in 10.0 mi WNW 4.6 mph - N/A   Overcast
11:35 AM 8.6 °F - -6.2 °F 51% 30.28 in 10.0 mi Calm Calm - N/A   Overcast
11:55 AM 13.5 °F 4.4 °F -3.8 °F 46% 30.27 in 10.0 mi SSE 5.8 mph - N/A   Scattered Clouds
12:15 PM 15.3 °F 5.4 °F -3.3 °F 44% 30.25 in 10.0 mi South 6.9 mph - N/A   Clear
12:35 PM 17.2 °F 6.0 °F -2.6 °F 42% 30.24 in 10.0 mi South 9.2 mph - N/A   Clear
12:55 PM 17.6 °F 5.7 °F -2.4 °F 41% 30.22 in 10.0 mi South 10.4 mph - N/A   Clear
1:15 PM 17.1 °F 5.8 °F -1.5 °F 44% 30.22 in 10.0 mi South 9.2 mph - N/A   Scattered Clouds
1:35 PM 18.5 °F 7.5 °F 1.6 °F 48% 30.21 in 10.0 mi South 9.2 mph - N/A   Overcast
1:55 PM 18.5 °F 10.4 °F 3.2 °F 51% 30.20 in 10.0 mi South 5.8 mph - N/A   Overcast
2:35 PM 18.9 °F 8.8 °F 4.1 °F 53% 30.19 in 10.0 mi South 8.1 mph - N/A   Overcast
2:55 PM 19.0 °F 11.1 °F 3.2 °F 50% 30.19 in 10.0 mi SSE 5.8 mph - N/A   Overcast
3:15 PM 18.9 °F 10.8 °F 2.8 °F 50% 30.18 in 10.0 mi South 5.8 mph - N/A   Overcast
3:35 PM 19.2 °F 14.1 °F 3.0 °F 49% 30.18 in 10.0 mi SSE 3.5 mph - N/A   Overcast
3:55 PM 19.8 °F 11.9 °F 3.2 °F 49% 30.17 in 10.0 mi SSE 5.8 mph - N/A   Mostly Cloudy
4:15 PM 19.2 °F 10.2 °F 2.3 °F 48% 30.16 in 10.0 mi SE 6.9 mph - N/A   Scattered Clouds
5:15 PM 18.7 °F 13.5 °F 3.2 °F 51% 30.14 in 10.0 mi SE 3.5 mph - N/A   Overcast
5:35 PM 19.0 °F 12.3 °F 3.7 °F 51% 30.13 in 10.0 mi SE 4.6 mph - N/A   Overcast
5:55 PM 19.0 °F 12.3 °F 4.1 °F 52% 30.13 in 10.0 mi SE 4.6 mph - N/A   Overcast
6:15 PM 18.9 °F 13.7 °F 4.6 °F 54% 30.12 in 10.0 mi SSE 3.5 mph - N/A   Overcast
6:35 PM 18.9 °F - 5.4 °F 56% 30.11 in 10.0 mi Calm Calm - N/A   Overcast
6:55 PM 19.0 °F 12.3 °F 6.8 °F 59% 30.11 in 10.0 mi SE 4.6 mph - N/A   Overcast
7:15 PM 18.5 °F 11.7 °F 6.8 °F 60% 30.11 in 10.0 mi SE 4.6 mph - N/A   Overcast
7:35 PM 18.3 °F 13.1 °F 6.6 °F 60% 30.11 in 10.0 mi SE 3.5 mph - N/A   Overcast
7:55 PM 18.3 °F - 7.7 °F 63% 30.09 in 10.0 mi Calm Calm - N/A   Overcast
8:15 PM 18.5 °F 11.7 °F 10.9 °F 72% 30.09 in 10.0 mi South 4.6 mph - N/A   Overcast
8:35 PM 19.4 °F 11.5 °F 13.1 °F 76% 30.09 in 10.0 mi South 5.8 mph - N/A   Overcast
8:55 PM 19.4 °F 10.4 °F 13.6 °F 78% 30.08 in 10.0 mi South 6.9 mph - N/A   Overcast
9:15 PM 19.4 °F 9.5 °F 14.0 °F 80% 30.08 in 10.0 mi South 8.1 mph - N/A   Overcast
9:35 PM 19.8 °F 10.8 °F 14.9 °F 81% 30.07 in 10.0 mi South 6.9 mph - N/A   Overcast
9:55 PM 19.8 °F 11.9 °F 15.4 °F 83% 30.07 in 7.0 mi South 5.8 mph - N/A   Overcast
10:15 PM 19.8 °F 13.2 °F 15.8 °F 85% 30.07 in 7.0 mi South 4.6 mph - N/A   Overcast
10:35 PM 19.8 °F 11.9 °F 16.2 °F 86% 30.06 in 7.0 mi SSW 5.8 mph - N/A   Overcast
10:55 PM 19.6 °F 11.7 °F 16.3 °F 87% 30.06 in 5.0 mi South 5.8 mph - N/A   Overcast
11:15 PM 19.8 °F 13.2 °F 16.2 °F 86% 30.05 in 5.0 mi South 4.6 mph - N/A   Overcast
11:35 PM 19.8 °F - 16.2 °F 86% 30.03 in 5.0 mi Calm Calm - N/A   Overcast
11:55 PM 19.8 °F 14.7 °F 16.2 °F 86% 30.02 in 5.0 mi SSE 3.5 mph - N/A   Overcast